Location: Ore Lake
(42.4733°N, 83.8017°W)
Time: 07:42:15
(UTC-04:00)

Daily predictions for brighter satellites

Satellite Brightness Start Highest point End
(mag) Time Altitude Azimuth Time Altitude Azimuth Time Altitude Azimuth
Cosmos 2227 Rocket 2.3 20:37:02 10° NNW 20:42:40 62° ENE 20:48:15 10° SE
NOSS 2-1 (C) 4.1 20:40:01 10° SW 20:43:51 61° NW 20:48:18 10° NNE
Cosmos 1821 Rocket 3.9 20:38:16 10° S 20:44:22 80° E 20:50:29 10° N
Helios 1A 3.5 20:40:32 10° S 20:44:41 66° WSW 20:48:52 10° NNW
Cosmos 1605 Rocket 4.2 20:41:28 10° SSE 20:47:32 49° E 20:53:32 10° NNE
EP 1 4.1 20:48:55 10° SSW 20:51:30 67° SE 20:54:07 10° NE
Lacrosse 5 2.9 20:47:25 10° NW 20:52:03 34° NNE 20:56:39 10° E
ERS-1 Rocket 4.1 20:49:00 10° ESE 20:53:07 26° ENE 20:57:13 10° N
Cosmos 1461 2.8 20:51:02 10° NNW 20:55:08 88° WSW 20:59:05 10° SSE
DELTA 2 R/B (1) 3.8 20:50:53 10° W 20:56:22 60° S 21:01:40 11° ESE
Cosmos 1346 Rocket 2.7 20:52:42 10° N 20:56:40 84° E 21:00:39 10° S
Cosmos 2082 3.7 20:52:07 10° NNW 20:57:45 76° ENE 21:03:22 10° SSE
Cosmos 2297 Rocket 2.3 20:52:20 10° NNW 20:57:57 59° ENE 21:03:31 10° SE
Meteor 1-5 Rocket 4.1 20:53:31 10° S 20:58:51 87° E 21:04:23 10° N
Cosmos 1898 Rocket 4.2 20:58:15 10° N 21:03:11 38° ENE 21:07:49 11° SE
H-2A R/B 3.8 21:03:38 11° E 21:05:48 15° ENE 21:08:14 10° NNE
Meteor 2-15 Rocket 4.5 21:01:24 10° N 21:07:32 89° W 21:13:35 10° S
Cosmos 1626 Rocket 3.7 21:03:31 10° N 21:07:51 52° E 21:12:06 10° SSE
Cosmos 1892 Rocket 4.5 21:03:54 10° NNW 21:08:16 53° W 21:12:37 10° S
Cosmos 1455 Rocket 3.3 21:08:32 10° SSW 21:12:51 73° W 21:17:14 10° N
Cosmos 1515 4.2 21:09:44 10° N 21:13:24 40° ENE 21:16:39 12° SSE
Cosmos 2123 Rocket 4.1 21:10:18 10° N 21:16:30 81° W 21:22:40 10° S
Cosmos 1602 Rocket 3.6 21:12:43 10° N 21:17:11 67° E 21:21:34 10° SSE
RESURS DK-1 3.4 21:14:28 10° N 21:18:08 29° ENE 21:20:28 18° ESE
Cosmos 468 Rocket 4.3 21:14:43 10° S 21:19:29 40° ESE 21:24:16 10° NE
Cosmos 2084 3.5 21:17:02 10° NNW 21:21:02 57° NE 21:23:56 19° SE
CZ-4 DEB 3.1 21:22:56 20° SE 21:24:48 44° ENE 21:27:49 10° N
SJ-11-01 4.5 21:20:47 12° SSE 21:24:56 52° ENE 21:29:30 10° N
Cosmos 220 Rocket 3.9 21:23:53 10° NNW 21:28:07 88° WSW 21:31:55 13° SSE
Cosmos 1743 3.8 21:26:39 21° SE 21:28:08 26° E 21:31:26 10° NNE
Cosmos 1459 Rocket 4.3 21:22:52 10° SSE 21:28:26 41° E 21:34:05 10° NNE
Cosmos 1814 Rocket 4.3 21:24:54 10° S 21:29:55 43° ESE 21:34:56 10° NNE
SL-24 R/B - RUBIN 2 4.3 21:26:34 10° SSW 21:32:25 77° ESE 21:38:56 10° NE
Cosmos 1066 Rocket 4.3 21:27:40 10° N 21:33:17 61° ENE 21:38:16 14° SSE
Cosmos 1697 Rocket 2.7 21:29:32 10° S 21:35:03 57° ESE 21:40:35 10° NNE
OAO 2 Rocket 4.1 21:31:35 10° WSW 21:36:08 35° S 21:38:28 23° SE
SL-16 R/B 4.2 21:46:17 11° ENE 21:46:17 11° ENE 21:46:47 10° ENE
Resurs 01 Rocket 4.5 21:41:12 10° SW 21:43:58 16° W 21:46:47 10° NW
Cosmos 2058 Rocket 4.4 21:45:01 22° E 21:45:01 22° E 21:48:16 10° NE
Cosmos 858 Rocket 4.5 21:41:07 10° NNW 21:46:26 79° ENE 21:49:56 22° SSE
ALOS 3.9 21:44:42 10° SSW 21:48:53 33° W 21:53:07 10° NNW
Cosmos 1606 Rocket 4.1 21:50:20 32° SE 21:51:29 38° E 21:55:35 10° NNE
ASTEX 1 4.1 21:47:00 10° NNE 21:51:33 34° E 21:52:41 30° ESE
Cosmos 1975 3.8 21:48:42 10° SSW 21:52:41 50° W 21:56:42 10° N
ARGOS 4.2 21:53:32 24° E 21:55:00 27° ENE 21:59:28 10° N
Cosmos 1842 4.5 21:52:07 10° NNE 21:55:11 25° ENE 21:55:11 25° ENE
USA 186 4.1 21:54:11 10° SSW 21:56:37 21° W 21:58:56 10° NW
Cosmos 1980 Rocket 2.3 21:52:37 10° S 21:58:06 53° ESE 22:03:38 10° NNE
Lacrosse 5 rocket 2.8 21:57:02 10° WNW 22:00:06 25° SW 22:01:42 18° SSW
Cosmos 2298 Rocket 4.3 21:55:01 10° NNW 22:00:17 65° WSW 22:04:08 19° S
Cosmos 1802 Rocket 4.0 21:56:06 10° S 22:02:24 66° E 22:08:47 10° NNE
Envisat 2.9 22:00:25 25° SSE 22:03:29 87° ENE 22:08:36 10° NNW
OTV 4 3.2 22:05:18 10° SW 22:05:33 10° SW 22:05:33 10° SW
Iridium 4 Rocket 4.2 22:01:22 10° NNW 22:06:15 49° W 22:10:42 10° SSW
Cosmos 1937 Rocket 3.5 22:01:18 10° NNW 22:06:37 87° WSW 22:09:16 30° SSE
MetOp-B 4.3 22:07:40 37° SE 22:09:31 55° ENE 22:14:45 10° N
Cosmos 1726 Rocket 3.5 22:14:24 54° SE 22:14:53 59° E 22:19:14 10° NNE
Cosmos 1666 3.8 22:16:27 31° NE 22:16:27 31° NE 22:18:48 10° NNE
Cosmos 2016 Rocket 3.9 22:11:10 21° S 22:15:18 69° E 22:21:29 10° NNE
H-2A R/B 3.4 22:17:51 21° ENE 22:17:51 21° ENE 22:21:33 10° NNE
Cosmos 990 Rocket 3.9 22:13:49 10° NNW 22:19:07 89° ENE 22:20:53 43° SSE
Tiangong 1 2.1 22:17:08 10° W 22:19:22 41° W 22:19:22 41° W
Cosmos 2263 Rocket 3.5 22:20:10 10° N 22:24:38 24° NE 22:25:29 23° ENE
Cosmos 2227 Rocket 4.5 22:22:17 10° NW 22:26:10 19° W 22:30:01 10° SW
Cosmos 1939 Rocket 4.0 22:25:54 26° SSW 22:27:46 42° W 22:31:45 10° NNW
Cosmos 2173 Rocket 4.2 22:21:25 10° SSW 22:27:46 71° W 22:34:07 10° N
Cosmos 1825 Rocket 3.9 22:23:56 10° NNW 22:28:19 63° W 22:29:39 41° SSW
Cosmos 2322 Rocket 3.1 22:32:37 31° ENE 22:32:37 31° ENE 22:36:05 10° NE
ERS-1 Rocket 4.1 22:28:09 16° SSW 22:31:41 39° W 22:36:23 10° NNW
Cosmos 2098 Rocket 3.9 22:29:39 32° S 22:33:02 72° E 22:38:50 10° NNE
SL-08 RB Rocket 4.3 22:33:41 44° ENE 22:33:41 44° ENE 22:37:50 10° N
Meteor 1-21 4.3 22:27:44 10° NNW 22:33:31 76° W 22:35:57 37° S
Cosmos 836 Rocket 4.5 22:34:20 58° ESE 22:34:20 58° ESE 22:39:30 10° NNE
BREEZE-M DEB (TANK) 4.3 22:30:09 10° WNW 22:34:20 83° NNE 22:39:15 34° ESE
Lacrosse 5 2.2 22:30:17 10° NW 22:35:12 53° SW 22:36:04 47° SSW
Cosmos 1340 3.2 22:32:56 10° NNW 22:36:40 53° W 22:36:49 52° WSW
SPOT 1/Viking Rocket 3.5 22:36:08 60° ESE 22:36:44 66° ENE 22:41:55 10° N
YAOGAN 6 3.0 22:38:50 61° NNW 22:38:50 61° NNW 22:42:00 10° NNW
Cosmos 1953 Rocket 3.8 22:34:12 10° NNW 22:38:38 67° W 22:39:18 57° SW
SPOT 5 3.1 22:39:47 47° SSW 22:41:05 66° WSW 22:45:54 10° NNW
Cosmos 967 Rocket 4.4 22:35:02 10° NW 22:41:24 79° WSW 22:43:06 51° SSE
H-2A R/B 2.7 22:40:46 43° SW 22:41:24 47° W 22:45:26 10° NNW
Cosmos 2297 Rocket 4.4 22:37:29 10° NW 22:41:28 20° W 22:45:28 10° SW
Cosmos 2360 4.1 22:38:33 21° SSW 22:42:28 86° ESE 22:48:14 10° NNE
Meteor 2-9 Rocket 4.0 22:41:31 59° SSE 22:42:32 78° E 22:47:58 10° NNE
USA 245 4.4 22:41:37 52° SSE 22:43:20 83° ENE 22:49:42 10° N
Cosmos 1864 Rocket 4.3 22:41:44 50° SSE 22:43:23 75° E 22:49:30 10° N
Cosmos 1763 Rocket 3.6 22:41:43 20° SSW 22:45:18 70° WNW 22:50:22 10° NNE
Cosmos 2227 4.3 22:43:11 10° NNW 22:48:54 70° WSW 22:50:03 55° S
Tsikada Rocket 3.9 22:43:26 10° N 22:49:54 84° E 22:51:22 57° SSE
Cosmos 1125 Rocket 3.4 22:46:25 10° NNW 22:51:36 72° ENE 22:51:36 72° ENE
Cosmos 2228 3.8 22:54:37 43° NNE 22:54:37 43° NNE 22:57:33 10° N
Landsat 7 4.4 22:55:37 45° NE 22:55:37 45° NE 22:59:25 10° N
RESURS DK-1 4.1 22:52:40 10° NW 22:56:05 25° WSW 22:56:25 25° WSW
Cosmos 1758 Rocket 4.2 22:53:10 10° NNW 22:57:21 48° W 22:57:28 47° W
USA 215 3.5 23:03:14 48° E 23:04:48 59° NNE 23:11:13 10° NW
Cosmos 841 Rocket 4.2 23:04:54 23° SW 23:07:55 51° WNW 23:13:00 10° N
Terra 2.8 23:11:26 39° NNE 23:11:26 39° NNE 23:14:45 10° N
Cosmos 1816 Rocket 4.4 23:05:05 10° N 23:11:30 85° W 23:12:13 72° S
BREEZE-M DEB (TANK) 4.2 23:10:23 10° WNW 23:11:27 24° W 23:11:27 24° W
Cosmos 1725 Rocket 4.3 23:12:55 41° SW 23:15:02 62° W 23:21:14 10° N
Meteor 2-17 Rocket 4.3 23:20:18 85° WSW 23:20:23 85° W 23:26:29 10° N
Cosmos 540 Rocket 4.4 23:25:35 40° NNE 23:25:35 40° NNE 23:28:51 10° NNE
SL-16 R/B 2.4 23:28:05 65° N 23:28:05 65° N 23:32:57 10° NNE
ARGOS 4.0 23:35:03 42° W 23:35:03 42° W 23:40:07 10° NNW
Cosmos 1844 Rocket 4.5 23:32:47 10° N 23:36:28 21° NE 23:36:28 21° NE
BREEZE-M DEB (TANK) 3.7 23:30:54 10° W 23:38:01 52° WNW 23:38:01 52° WNW
Cosmos 2233 Rocket 4.2 23:39:50 63° W 23:40:05 64° W 23:46:18 10° N
Cosmos 1980 Rocket 4.2 23:37:46 10° WSW 23:42:25 25° NW 23:47:07 10° N
Cosmos 2360 Rocket 3.9 23:45:50 23° NE 23:45:50 23° NE 23:47:58 10° NNE
